CDT,Max TemperatureF,Mean TemperatureF,Min TemperatureF,Max Dew PointF,MeanDew PointF,Min DewpointF,Max Humidity, Mean Humidity, Min Humidity, Max Sea Level PressureIn, Mean Sea Level PressureIn, Min Sea Level PressureIn, Max VisibilityMiles, Mean VisibilityMiles, Min VisibilityMiles, Max Wind SpeedMPH, Mean Wind SpeedMPH, Max Gust SpeedMPH,PrecipitationIn, CloudCover, Events, WindDirDegrees
2013-10-1,90,76,64,70,66,63,94,77,46,30.10,30.05,30.01,10,9,2,8,2,,0.00,2,,74
2013-10-2,82,75,69,74,69,66,94,88,69,30.11,30.07,30.04,10,7,1,7,1,,0.02,4,Rain,80
2013-10-3,89,77,66,71,67,64,100,81,46,30.11,30.05,30.02,10,6,1,8,2,,0.00,0,,93
2013-10-4,93,80,69,73,69,66,94,78,45,30.10,30.06,30.03,10,8,2,13,3,,0.00,2,Rain-Thunderstorm,105
2013-10-5,91,79,69,74,71,69,100,86,52,30.08,30.04,29.98,10,6,1,8,1,,0.00,1,Rain,125
2013-10-6,79,72,66,73,70,64,100,94,81,29.98,29.91,29.83,10,5,0,7,2,,1.27,5,Fog-Rain-Thunderstorm,99
2013-10-7,80,71,62,72,61,54,94,77,47,29.97,29.88,29.83,10,9,2,20,7,25,0.00,4,Rain,344
2013-10-8,82,68,55,68,60,52,87,72,52,30.03,29.98,29.94,10,10,10,7,4,,0.00,2,,13
2013-10-9,75,68,60,65,62,58,94,84,65,30.14,30.09,30.02,10,9,0,12,5,,0.00,4,Fog,63
2013-10-10,86,70,55,66,58,54,100,86,41,30.14,30.09,30.03,10,5,1,6,0,,0.00,2,,40
2013-10-11,86,70,57,67,60,55,100,82,40,30.09,30.04,29.99,10,6,0,6,1,,0.00,2,Fog,343
2013-10-12,87,72,57,68,60,55,100,80,40,30.11,30.07,30.02,10,6,0,7,1,,0.00,2,Fog,335
2013-10-13,87,72,57,62,60,56,96,70,40,30.17,30.12,30.08,10,8,3,10,2,,0.00,0,,30
2013-10-14,87,74,61,64,61,58,93,72,43,30.15,30.09,30.04,10,10,8,9,3,16,0.00,0,,56
2013-10-15,82,70,59,65,61,57,94,82,54,30.10,30.05,30.00,10,8,2,8,2,,0.00,0,,59
2013-10-16,84,70,55,66,59,55,100,81,44,30.05,30.00,29.94,10,7,0,5,0,,0.00,0,Fog,140
2013-10-17,84,73,62,73,68,60,97,85,58,29.99,29.95,29.90,10,8,2,9,2,,0.06,7,Rain-Thunderstorm,277
2013-10-18,78,72,64,66,64,63,93,83,66,30.03,29.98,29.94,10,9,2,8,5,,0.00,7,Rain,9
2013-10-19,75,68,63,65,62,58,94,81,59,30.03,29.97,29.93,10,9,2,10,2,16,0.00,5,Rain,6
2013-10-20,78,68,57,58,56,55,94,76,45,30.07,30.02,29.98,10,9,3,7,2,,0.00,2,,15
2013-10-21,73,66,60,64,59,54,90,79,68,30.08,30.03,29.99,10,10,5,5,1,,0.00,1,Rain,29
2013-10-22,75,68,62,64,62,55,100,87,64,30.00,29.96,29.90,10,6,2,7,1,,0.03,5,Rain,340
2013-10-23,73,63,52,55,46,38,87,59,28,30.13,30.03,29.95,10,10,10,16,7,22,0.00,0,,332
2013-10-24,77,58,39,51,44,38,93,67,31,30.25,30.18,30.13,10,9,5,6,1,,0.00,0,,240
2013-10-25,68,57,46,49,40,30,93,61,27,30.39,30.32,30.21,10,10,10,9,4,16,0.00,0,,10
2013-10-26,73,54,36,48,37,31,93,64,24,30.31,30.26,30.19,10,10,7,7,2,,0.00,0,,45
2013-10-27,77,58,39,56,46,38,93,70,34,30.21,30.16,30.12,10,9,7,5,0,,0.00,0,,120
2013-10-28,82,64,48,55,52,47,96,72,34,30.25,30.20,30.14,10,9,5,6,1,,0.00,1,,147
2013-10-29,84,65,48,63,54,46,93,75,34,30.30,30.25,30.20,10,7,3,6,1,,0.00,0,,66
2013-10-30,84,66,53,64,57,51,100,87,50,30.27,30.20,30.14,10,4,0,8,1,,0.00,1,Fog,114
2013-10-31,81,68,55,72,65,55,100,88,69,30.13,30.02,29.91,10,6,0,15,3,25,0.08,5,Fog-Rain,158